Theta_e
298 298 298 298 299 300 300 301 301 301 301 301 300 300 300 301 301 299 296 299 294 289 291 294 295 293 293 293 288 291 290 290 288 285 285 286 286 288 288 290 288 286 285 285 287 284 281 299 297 293 299 303 302 303
298 298 298 299 299 300 300 301 301 301 301 301 301 301 301 301 301 301 294 298 299 291 293 298 298 299 298 297 293 291 291 291 293 290 290 290 287 290 289 285 294 286 290 289 289 289 300 303 302 304 304 302 302 302
298 298 299 299 300 300 300 300 300 301 301 301 301 301 301 301 302 301 297 296 294 289 291 292 294 299 301 301 303 291 293 295 296 299 294 292 287 291 287 288 291 294 297 293 293 297 299 302 303 303 303 302 302 302
298 298 299 299 300 300 301 301 301 301 301 301 301 301 301 301 302 302 296 297 294 291 286 291 299 296 301 302 302 301 298 300 300 297 294 292 289 295 291 292 292 294 297 294 294 297 300 300 301 301 302 302 300 300
298 299 299 300 301 301 301 301 301 301 301 302 302 302 302 302 302 301 298 298 299 293 288 288 297 299 300 299 300 299 298 295 294 292 292 289 294 294 295 295 292 297 294 292 292 299 299 297 300 299 299 297 296 296
299 299 300 300 300 301 301 301 301 301 301 302 302 303 303 303 301 296 287 297 301 300 292 287 296 296 299 299 298 298 297 296 294 290 292 295 298 294 290 289 295 299 299 299 297 299 300 299 298 297 296 294 293 292
299 300 300 300 300 301 301 301 301 301 301 301 302 302 302 302 299 292 292 297 300 302 290 287 290 295 298 298 296 296 297 295 295 291 291 294 295 296 292 289 293 294 295 297 295 296 296 293 288 290 292 291 290 289
300 300 300 300 300 300 300 301 300 301 301 301 302 302 302 300 299 296 300 301 301 294 293 287 288 291 297 291 290 297 292 293 292 292 295 293 295 295 289 290 291 291 292 292 291 292 292 290 287 286 287 286 284 283
299 299 299 300 300 300 301 300 300 301 301 301 301 301 294 293 292 297 300 301 302 295 289 290 286 285 297 292 292 293 293 286 294 289 292 294 292 287 282 285 285 285 285 286 290 289 288 285 283 283 283 282 281 280
299 299 300 300 300 300 301 300 300 301 301 301 297 289 285 291 300 300 294 288 290 292 294 290 295 286 293 291 290 290 293 290 284 288 291 288 283 283 284 284 283 283 284 285 286 284 285 284 284 283 281 281 281 280
299 299 299 300 300 300 300 300 300 300 299 294 288 288 295 300 296 292 286 288 289 286 292 292 293 288 295 289 288 292 287 288 284 286 287 287 280 281 282 282 283 284 283 283 283 283 284 283 281 280 279 279 279 278
297 297 298 300 300 300 299 299 300 300 298 295 294 295 294 291 290 287 285 287 287 285 289 289 291 293 292 294 291 289 286 288 283 289 286 282 278 280 280 280 280 281 282 281 282 281 281 280 280 279 277 276 275 275
297 297 297 298 299 300 299 299 299 299 300 297 292 286 288 286 282 283 279 282 284 288 290 290 287 289 291 291 289 288 284 283 290 284 281 277 279 279 279 279 279 280 280 279 278 279 278 277 277 276 274 274 274 273
296 296 296 296 296 295 295 294 296 296 296 289 286 277 282 280 280 281 282 284 284 286 287 291 286 287 286 286 288 283 282 285 281 279 276 278 277 277 278 278 278 276 277 276 276 276 275 274 274 274 274 274 273 271
297 295 295 294 294 293 293 293 294 293 288 282 283 276 277 280 281 282 284 285 285 287 288 290 289 290 286 283 285 283 279 278 279 277 277 277 278 277 277 277 276 276 275 275 276 275 274 274 273 273 274 274 274 273
298 298 293 294 293 292 293 293 291 289 284 280 279 278 281 282 281 283 284 284 286 287 290 292 286 283 281 283 281 276 281 278 276 277 278 278 277 277 277 277 277 277 276 276 275 275 274 274 273 273 273 273 273 272
298 296 293 292 291 291 292 291 288 282 280 278 277 280 281 280 280 281 283 283 287 287 284 288 282 278 284 280 276 277 276 276 277 277 278 278 277 276 276 276 276 277 276 276 276 276 275 276 276 275 273 273 273 271
296 297 295 292 294 291 288 288 284 281 276 279 277 278 279 280 281 281 283 285 287 287 286 279 285 279 277 274 276 275 276 278 278 277 277 277 277 278 278 277 277 277 277 276 276 276 276 275 274 274 273 273 272 272
297 297 295 296 294 288 283 283 284 276 277 279 280 280 280 280 281 282 283 283 286 287 285 282 277 276 275 277 275 276 276 277 275 276 276 277 277 276 276 276 276 276 275 276 276 275 275 275 275 275 275 275 274 274
294 294 294 293 293 286 280 281 286 279 277 278 280 278 279 279 281 281 281 282 282 280 276 274 274 276 276 278 279 278 278 278 277 275 274 276 277 277 277 276 275 275 275 274 274 274 274 274 274 274 274 274 274 272
294 293 292 294 290 287 284 282 280 280 280 277 279 279 277 279 278 278 278 280 277 275 274 276 276 278 279 279 280 279 279 279 278 278 276 274 276 276 275 275 276 276 276 275 274 273 273 273 273 273 273 272 272 272
294 292 293 292 286 285 282 284 281 282 280 278 278 279 277 276 276 276 278 275 273 274 277 277 277 277 277 276 277 277 277 276 276 275 275 276 275 275 275 275 275 274 274 274 274 273 273 272 273 272 271 271 271 271
291 293 291 288 284 282 279 286 280 281 277 276 279 276 276 276 276 280 273 274 274 277 277 276 276 276 275 275 275 276 276 276 275 275 275 274 274 275 274 274 274 273 272 272 273 273 271 267 269 271 270 271 272 270
289 283 282 283 283 278 283 280 282 280 279 278 276 273 274 276 279 275 271 272 274 277 275 275 276 275 275 275 274 274 275 276 275 275 275 275 273 273 274 273 273 273 272 272 272 271 271 270 266 270 270 269 269 268
281 275 280 277 282 280 278 277 277 278 275 276 274 274 275 279 274 272 271 272 274 275 275 277 277 277 275 274 274 274 275 276 275 273 274 274 273 273 272 272 272 271 273 273 271 271 269 269 269 269 269 268 267 266
273 274 276 277 278 278 279 276 276 276 276 274 273 276 279 277 272 271 273 274 275 275 276 276 277 276 275 276 274 273 273 276 276 273 272 273 273 273 272 271 271 270 271 271 271 270 269 268 268 265 266 266 262 263
272 272 274 276 277 279 278 279 280 277 274 272 275 274 274 270 269 270 274 277 275 276 277 278 278 277 275 273 274 274 274 273 273 272 272 272 271 271 272 270 267 269 270 269 270 269 268 267 267 266 266 267 267 266
272 272 269 270 271 274 271 272 272 271 272 274 275 268 268 269 269 273 274 275 276 276 276 276 277 276 275 274 273 272 271 271 271 271 271 271 271 270 269 269 268 265 268 267 268 267 267 267 266 266 266 265 265 266
270 272 270 264 268 269 268 269 269 270 270 274 271 269 267 269 273 272 273 275 276 275 273 272 271 273 272 273 273 273 273 273 269 265 264 269 270 269 270 269 269 269 269 268 264 265 266 266 266 265 265 265 266 266
268 273 268 266 265 265 267 270 268 272 272 272 271 269 268 269 272 275 275 275 274 273 273 273 274 274 271 271 269 269 270 270 268 269 268 268 268 268 269 269 268 268 267 267 266 266 265 266 266 265 264 265 265 265
273 273 269 268 266 268 270 271 272 273 273 272 273 270 268 269 270 271 272 273 273 273 272 271 270 271 270 270 271 270 268 267 264 265 267 268 268 268 267 265 266 266 266 265 265 265 264 263 265 264 263 263 262 261
272 269 267 265 266 270 273 272 272 271 271 271 270 272 272 271 268 270 270 273 273 271 268 271 270 269 269 268 268 267 266 266 266 265 265 266 266 265 266 266 265 265 264 264 264 263 263 262 262 263 262 262 261 260
271 271 270 269 268 269 270 273 271 270 271 270 269 269 269 270 266 268 270 270 270 271 271 269 269 268 267 267 267 266 266 265 262 262 262 261 260 261 264 266 265 264 263 263 263 263 262 261 261 261 261 260 260 260
Wind_Speed
26 27 26 26 27 26 26 23 20 20 20 23 25 26 27 27 27 18 10 11 14 5 17 16 19 13 10 8 9 2 5 4 3 4 5 7 5 5 5 7 17 14 12 10 13 12 15 5 4 9 8 9 8 9
26 26 27 27 26 26 25 23 22 20 21 22 23 24 25 26 26 24 7 9 11 8 8 16 20 18 16 11 5 5 5 5 8 7 6 2 4 2 10 4 11 10 13 7 10 9 7 8 12 9 7 8 10 10
26 27 27 27 26 27 26 24 23 23 22 22 25 24 24 25 26 24 7 7 8 6 3 12 15 16 18 15 9 3 3 6 6 5 2 3 5 5 6 7 7 8 12 3 7 8 9 10 11 8 9 9 9 9
27 26 26 27 28 26 23 20 21 21 24 22 22 24 26 27 27 24 7 9 8 3 6 9 16 23 13 15 16 16 12 8 4 3 4 3 4 9 4 3 6 4 10 9 7 5 10 10 9 9 9 10 9 8
25 26 28 24 19 18 17 15 15 14 17 19 21 21 22 24 24 16 7 10 12 8 4 8 10 13 16 20 17 16 12 10 2 3 4 4 4 5 4 3 5 4 0 3 1 10 7 7 7 9 8 10 10 9
24 26 20 20 19 19 16 17 15 17 16 15 18 20 20 22 25 7 3 9 12 7 2 2 6 11 16 15 16 17 10 8 4 3 3 4 5 3 3 4 5 8 10 11 7 10 8 10 9 10 9 9 9 9
23 18 18 18 19 18 16 15 16 15 18 15 14 16 19 24 11 4 3 7 17 6 2 4 4 4 15 14 6 7 11 3 4 3 3 3 2 4 3 3 6 8 8 10 10 10 9 13 7 9 9 9 9 10
14 16 19 23 24 22 18 15 19 19 18 16 14 18 24 23 9 3 2 22 17 4 4 4 2 4 8 4 4 5 3 3 4 2 4 7 6 3 2 6 5 10 7 9 9 8 6 7 8 8 6 6 8 9
13 16 21 16 16 8 18 21 21 21 19 16 16 21 9 4 3 4 16 21 4 3 4 4 5 4 8 2 3 3 3 3 3 3 4 3 4 2 4 5 7 8 7 8 8 8 5 7 8 8 8 8 9 9
10 14 18 12 14 18 20 23 18 19 20 25 10 4 3 2 29 10 5 3 2 2 4 3 3 3 7 4 4 3 2 2 3 4 2 3 4 6 6 7 6 6 6 8 6 2 2 5 6 8 9 8 8 9
11 14 20 17 21 24 26 27 31 31 17 4 3 3 7 17 4 2 3 4 5 5 5 3 5 5 0 5 4 2 2 3 4 4 6 5 4 4 6 7 6 6 6 7 7 7 8 8 8 9 10 11 11 12
14 17 15 13 15 20 22 21 12 4 3 7 9 6 3 2 3 4 4 3 6 4 3 5 4 4 2 2 2 4 2 2 1 6 4 5 4 6 6 6 6 7 8 9 9 9 10 11 11 11 12 12 12 12
13 13 14 14 14 17 20 19 18 23 15 4 5 4 2 1 3 5 7 4 5 4 3 4 5 2 3 2 2 3 4 2 1 3 3 5 7 6 5 6 7 8 9 11 12 12 14 14 13 13 13 12 12 13
14 15 15 15 15 15 13 11 6 5 2 4 3 5 4 4 3 4 5 5 3 3 2 5 4 2 2 1 0 3 2 2 3 4 4 5 7 6 6 6 8 10 11 12 13 13 13 13 13 13 12 11 11 12
10 11 10 13 14 14 14 14 16 7 5 5 5 5 5 3 3 3 2 1 3 2 0 4 4 3 2 3 2 4 4 3 4 5 4 7 7 7 8 9 9 10 9 10 10 11 12 12 12 13 11 11 11 11
2 3 6 6 11 11 6 6 7 5 5 5 7 4 1 3 6 4 5 5 4 3 1 2 3 3 3 2 2 2 3 3 4 5 7 8 9 9 9 9 10 9 10 10 10 11 11 11 11 12 11 10 10 10
4 3 6 10 13 15 14 5 4 7 5 5 4 4 3 5 6 4 5 5 4 3 2 1 3 4 1 3 4 6 5 6 8 7 7 9 10 10 10 10 10 10 10 10 10 10 10 9 9 9 10 9 9 9
3 6 8 9 3 5 4 6 5 5 6 5 4 5 6 5 4 5 4 6 3 2 3 4 2 4 4 3 4 5 7 8 8 8 8 10 11 10 9 11 9 10 10 9 8 8 8 7 7 6 7 7 7 7
5 4 5 10 2 4 4 4 4 6 5 3 4 4 4 5 6 6 5 4 6 6 4 3 6 5 4 4 8 8 7 8 9 9 9 11 10 10 10 9 9 9 8 6 5 5 5 7 5 4 3 2 3 3
13 12 11 5 2 4 5 4 3 5 4 4 3 5 4 4 4 6 8 8 7 5 7 6 5 6 6 7 7 8 8 8 8 9 9 7 7 8 7 6 6 7 6 7 6 4 5 5 5 5 5 4 3 3
5 4 3 1 4 6 4 3 5 5 5 4 4 4 4 6 6 6 6 6 8 6 5 5 7 8 9 8 8 8 8 6 6 6 8 7 6 6 6 5 4 3 4 4 4 4 3 4 4 4 3 4 3 4
3 2 2 3 4 4 5 5 5 4 4 5 4 3 4 4 4 6 4 7 6 6 4 6 7 8 9 10 9 10 10 11 11 9 10 8 6 5 5 4 4 4 4 3 3 3 3 3 3 3 3 3 1 3
2 1 3 3 5 5 5 2 3 2 4 5 3 4 4 3 3 1 5 5 4 5 6 7 9 11 11 11 11 10 9 9 8 7 7 6 6 5 5 5 4 3 3 4 3 2 3 2 2 1 2 2 1 3
4 6 5 4 5 5 3 3 3 4 4 3 4 5 4 4 3 5 6 4 4 5 6 7 7 8 8 9 8 7 7 7 7 6 5 5 5 5 4 4 4 4 4 3 3 3 2 3 1 2 0 2 1 4
4 8 5 6 2 4 5 4 3 3 5 3 4 4 4 2 4 5 4 4 4 5 5 4 4 6 7 7 6 6 4 4 5 6 5 5 5 4 4 4 4 4 2 0 2 1 2 1 1 1 2 3 4 4
7 7 6 4 3 3 3 5 4 5 4 4 4 4 2 3 5 6 4 5 5 5 4 4 6 6 6 6 6 6 5 4 4 5 5 4 4 3 2 1 0 4 3 3 1 2 1 1 3 4 5 3 3 5
5 5 4 4 3 3 5 5 6 5 4 4 4 3 3 5 5 4 4 5 6 5 5 4 4 6 6 7 6 6 5 6 7 6 5 5 5 5 5 4 2 5 2 3 2 3 3 2 2 3 4 4 4 3
5 6 5 5 5 7 5 5 5 5 4 2 2 5 4 4 5 4 4 5 7 7 7 7 7 6 7 7 6 6 6 6 6 5 5 5 5 5 5 5 5 5 4 4 5 3 3 4 4 5 5 5 5 5
5 3 5 7 6 7 9 6 4 4 4 3 3 4 5 4 2 7 6 6 6 6 7 7 7 6 6 6 6 5 4 4 2 2 2 2 2 4 3 3 3 3 3 3 3 2 4 5 5 5 6 6 6 5
4 3 5 7 7 7 6 6 5 2 3 6 7 12 12 8 6 5 5 5 6 6 6 6 5 5 5 4 4 4 4 4 4 4 4 3 4 3 2 2 3 3 4 4 4 5 2 5 5 5 6 4 5 4
3 3 6 6 6 7 9 8 9 10 11 12 10 11 9 6 5 7 6 6 6 6 6 6 5 4 4 3 2 2 4 4 4 5 4 3 3 3 3 3 3 4 3 4 4 4 5 5 4 5 6 6 6 5
3 4 6 7 7 4 1 5 7 10 9 9 8 7 6 4 5 4 3 2 4 5 5 4 5 5 5 5 5 5 7 5 4 3 4 3 4 3 3 3 2 3 4 4 4 4 5 5 5 6 6 7 7 7
10 11 11 10 6 7 3 4 5 5 4 4 4 3 5 4 4 4 3 4 5 4 5 6 6 6 6 6 6 5 6 6 7 6 6 6 5 5 4 3 3 3 5 5 5 5 6 7 7 7 8 8 8 9
Wind_Direction
283 284 282 281 278 276 274 269 263 256 236 228 224 224 223 220 215 208 219 197 202 236 244 238 245 260 249 249 233 101 125 155 173 244 253 241 242 252 249 204 181 184 186 202 228 232 245 53 216 231 48 80 42 35
283 282 280 279 275 275 273 263 256 251 237 226 222 219 216 212 210 198 218 175 200 215 252 246 252 264 278 275 281 168 276 149 209 237 230 256 276 183 265 196 175 201 205 180 200 218 87 76 73 76 56 60 46 44
283 281 280 277 276 274 268 259 253 245 236 224 219 217 215 213 206 198 196 159 182 206 253 246 223 240 241 250 244 258 235 229 231 306 273 254 263 265 245 219 215 169 209 194 205 186 158 117 97 64 62 60 47 34
284 283 282 280 277 276 270 259 245 242 227 224 217 214 212 212 207 198 186 170 172 128 228 229 221 229 234 219 223 202 244 291 255 315 257 242 256 267 241 287 269 46 197 202 222 147 112 96 71 33 48 49 39 38
288 291 287 282 272 262 257 257 237 214 213 211 209 204 203 202 196 189 156 180 179 196 214 233 219 225 231 225 229 219 217 237 300 190 236 238 277 288 281 281 261 212 337 240 39 35 43 85 58 25 35 39 32 26
291 292 283 283 269 260 257 241 228 208 206 204 200 196 192 184 173 127 132 191 197 229 318 248 253 223 203 208 224 207 220 213 186 303 225 231 237 249 241 247 65 69 57 31 42 16 13 59 57 38 39 41 30 36
294 289 289 292 285 265 248 234 199 200 181 171 173 182 168 159 158 148 162 148 176 150 230 255 221 157 197 196 192 207 213 214 221 185 239 257 276 264 250 248 89 57 37 41 26 348 92 44 63 38 33 41 50 55
294 298 298 304 295 265 221 200 175 166 157 156 152 152 146 134 114 268 46 146 141 134 213 257 137 134 155 150 177 188 160 160 204 202 239 240 258 207 256 66 46 31 356 57 17 21 38 88 74 54 42 64 73 64
313 314 318 324 352 121 155 153 151 147 146 143 130 116 85 72 147 108 135 139 127 178 206 209 187 150 172 125 110 139 139 190 165 217 233 230 219 212 56 42 45 26 12 345 330 84 73 76 74 67 67 65 73 74
332 348 9 25 51 83 131 135 135 145 146 125 105 73 127 202 114 101 51 84 129 242 245 245 123 127 186 147 141 145 192 196 191 198 132 218 86 96 63 67 47 25 9 357 335 83 33 84 76 74 72 75 83 90
29 28 29 63 85 96 108 117 116 116 108 68 130 111 107 110 96 127 143 181 156 196 196 177 163 132 322 170 133 207 193 178 231 156 206 188 113 88 55 51 34 35 44 51 60 55 54 71 92 93 86 81 81 82
34 44 41 60 82 96 109 117 119 68 87 115 104 82 82 107 150 158 126 119 214 179 101 150 124 86 119 322 127 169 220 206 250 156 226 149 100 80 59 52 45 48 52 57 62 75 75 76 83 91 90 88 84 84
48 52 53 49 62 95 96 91 103 132 121 116 85 84 213 34 162 187 164 185 144 122 156 155 122 111 148 224 112 190 192 51 202 233 67 58 103 88 95 89 72 67 79 83 81 82 85 84 83 92 93 87 89 82
61 52 56 63 68 70 75 69 84 182 74 67 78 75 3 97 74 28 13 56 66 43 134 140 129 110 97 100 228 121 61 220 222 205 81 102 93 93 90 91 94 85 82 86 86 86 87 87 87 85 82 86 87 83
70 66 64 53 68 67 65 59 50 63 48 56 29 63 70 100 70 37 343 332 44 14 45 123 86 74 74 122 64 122 169 166 6 61 83 100 107 107 102 99 97 96 95 95 97 96 94 93 87 82 80 86 87 90
123 103 42 84 53 45 46 72 34 63 55 51 36 96 27 115 87 66 38 67 23 351 308 91 117 149 98 113 125 58 212 75 89 90 101 112 104 102 103 100 97 99 101 99 97 95 92 89 90 91 89 84 83 84
185 76 112 107 95 68 34 65 58 52 58 42 64 19 12 59 46 45 10 10 335 296 61 96 61 46 156 84 91 3 30 91 104 107 100 109 113 108 104 102 100 98 98 98 98 99 102 110 115 105 96 98 97 95
88 126 155 169 49 58 51 39 72 73 73 40 80 64 66 33 44 42 26 355 346 64 37 60 53 55 29 61 98 101 97 95 93 98 103 106 108 106 101 100 96 95 95 96 98 103 103 107 105 96 104 109 112 108
62 87 137 155 89 81 80 60 46 86 69 81 75 61 58 65 48 32 26 17 38 51 86 60 48 38 53 47 110 111 118 119 112 99 88 84 89 92 93 93 95 94 93 95 92 76 68 47 58 79 99 129 97 103
77 73 104 126 277 88 79 67 64 79 86 92 75 54 52 34 23 40 40 25 45 60 52 48 42 51 78 85 96 97 99 116 124 114 104 101 103 102 91 94 93 108 104 110 101 119 115 92 58 38 28 40 101 97
170 79 145 167 68 61 85 94 69 93 115 84 106 89 79 60 46 37 38 17 48 33 68 69 73 69 69 78 90 102 98 107 109 113 116 113 104 106 106 105 103 91 88 85 98 100 56 71 71 76 83 76 81 73
78 271 103 57 82 79 79 33 95 108 79 109 106 80 83 66 54 35 32 46 70 32 42 90 97 101 88 78 78 77 86 89 90 91 94 118 117 110 94 86 93 84 76 65 68 81 87 82 59 95 109 129 154 90
221 114 68 85 92 79 103 225 99 96 108 110 130 87 73 78 58 123 79 56 82 49 69 76 78 83 89 84 83 82 88 99 98 96 93 91 95 97 94 87 91 97 98 78 62 79 79 42 100 33 119 226 201 156
39 47 37 59 70 93 133 66 100 97 97 87 82 86 65 81 123 71 72 72 74 103 104 112 111 108 103 95 84 82 82 91 97 95 97 108 103 88 81 80 71 54 48 70 73 83 95 83 263 200 353 258 345 303
79 16 352 75 86 119 110 102 81 88 93 98 100 100 101 177 79 78 89 115 124 105 106 108 101 97 103 103 102 88 58 86 98 99 75 77 98 115 104 86 70 62 9 195 124 120 88 355 308 317 315 307 338 305
75 25 18 32 71 97 102 113 119 115 100 86 78 99 151 96 84 99 103 133 125 125 124 125 123 117 104 103 111 97 78 56 98 95 72 48 33 24 53 38 212 115 33 360 324 286 195 297 299 303 291 250 175 289
81 59 65 18 326 89 108 76 64 76 81 91 116 121 118 87 93 88 105 97 112 94 73 47 87 101 103 99 92 79 66 47 45 68 74 62 49 31 15 11 47 55 48 24 6 335 345 341 305 297 296 291 290 297
63 26 69 19 58 23 67 55 49 55 70 33 92 52 64 56 92 69 88 100 105 98 83 66 66 81 90 94 98 100 91 97 103 107 109 96 67 70 67 64 59 37 31 14 5 337 320 326 319 310 300 298 309 302
61 65 82 42 49 52 35 31 52 50 345 332 92 87 94 61 81 118 116 118 123 123 114 107 98 100 95 86 77 74 59 20 23 41 349 38 142 111 46 45 59 26 355 331 155 281 303 305 312 319 315 310 315 312
66 22 88 54 52 47 42 12 66 74 57 65 91 107 103 82 47 93 116 120 112 99 98 102 114 109 108 112 106 92 55 30 15 348 355 34 47 59 51 24 359 13 336 332 327 322 236 278 277 254 249 281 286 300
90 82 80 68 80 81 94 101 80 64 67 87 98 97 106 118 96 52 55 78 101 114 112 99 90 94 100 108 93 141 124 77 56 44 40 70 70 52 31 8 355 339 335 329 326 315 332 301 288 295 291 301 305 286
43 76 123 110 125 150 246 84 71 92 100 102 103 111 122 100 86 88 29 358 108 92 61 108 126 96 64 73 77 73 66 100 100 78 53 48 58 36 24 3 342 329 334 319 311 309 302 304 302 306 303 300 306 307
100 95 106 105 129 150 176 174 109 106 89 95 82 46 31 25 92 92 96 25 17 75 89 75 80 88 85 80 94 102 90 80 72 78 69 57 33 4 321 344 336 324 314 308 309 307 302 303 301 307 307 303 299 300